DW6061 Weather Reports


time (UTC)temp
F
wind
direction
speed
knots
gust
knots
rain 1hr
in
rain 24hr
in
rain mn
in
humidity
%
barometer
mb
20260505165954 57 196 0.9 1.7 0.00 0.00 0.00 80 1013.8
20260505165014 57 325 0.9 2.6 0.00 0.00 0.00 80 1013.7
20260505163954 56 335 0.9 4.3 0.00 0.00 0.00 81 1013.7
20260505163015 55 134 0.0 1.7 0.00 0.00 0.00 84 1013.7
20260505161954 54 121 0.0 0.9 0.00 0.00 0.00 87 1013.7
20260505160956 53 67 0.0 0.9 0.00 0.00 0.00 86 1013.7
20260505152952 51 5 0.0 0.9 0.00 0.00 0.00 90 1013.6
20260505152014 51 0.0 0.0 0.00 0.00 0.00 90 1013.5
20260505150955 51 5 0.0 0.9 0.00 0.00 0.00 90 1013.4
20260505124954 50 342 0.0 0.9 0.00 0.00 0.00 88 1012.7
20260505123955 50 342 0.0 0.9 0.00 0.00 0.00 87 1012.7
20260505122956 50 9 0.0 0.9 0.00 0.00 0.00 87 1012.8
20260505121955 50 0.0 0.0 0.00 0.00 0.00 86 1012.8
20260505120954 50 6 0.0 0.9 0.00 0.00 0.00 86 1012.9
20260505115954 50 14 0.0 0.9 0.00 0.00 0.00 85 1012.9
20260505115015 50 240 0.0 2.6 0.00 0.00 0.00 85 1012.9
20260505113955 50 310 0.0 1.7 0.00 0.00 0.00 85 1012.9
20260505112954 50 0.0 0.0 0.00 0.00 0.00 84 1012.9
20260505111954 50 0.0 0.9 0.00 0.00 0.00 84 1012.8
20260505110955 50 326 0.0 2.6 0.00 0.00 0.00 84 1012.7
20260505101954 50 311 0.9 3.5 0.00 0.00 0.00 84 1012.8
20260505101034 50 318 0.9 2.6 0.00 0.00 0.00 84 1012.8
20260505095955 50 349 0.0 1.7 0.00 0.00 0.00 83 1012.8
20260505095015 50 303 0.0 1.7 0.00 0.00 0.00 82 1013.0
20260505093955 51 351 0.0 0.9 0.00 0.00 0.00 82 1012.9
20260505092954 51 51 0.0 0.9 0.00 0.00 0.00 82 1012.9
20260505091955 51 345 0.0 1.7 0.00 0.00 0.00 81 1013.2
20260505090954 51 343 0.9 2.6 0.00 0.00 0.00 82 1013.4
20260505085955 51 348 0.9 3.5 0.00 0.00 0.00 81 1013.3
20260505084953 51 334 0.0 3.5 0.00 0.00 0.00 81 1013.3
20260505083955 51 339 0.9 3.5 0.00 0.00 0.00 82 1013.3
20260505082954 51 341 1.7 3.5 0.00 0.00 0.00 84 1013.4
20260505081956 51 326 0.9 2.6 0.00 0.00 0.00 85 1013.5
20260505080955 51 322 0.9 3.5 0.00 0.00 0.00 87 1013.6
20260505075954 51 337 0.9 2.6 0.00 0.00 0.00 88 1013.5
20260505074954 50 351 0.9 2.6 0.00 0.00 0.00 89 1013.6
20260505073954 50 331 0.0 1.7 0.00 0.00 0.00 89 1013.5
20260505073035 50 308 0.0 2.6 0.00 0.00 0.00 88 1013.5
20260505071955 51 319 0.0 1.7 0.00 0.00 0.00 88 1013.3
20260505070954 50 6 0.0 1.7 0.00 0.00 0.00 89 1013.4
20260505065955 50 292 0.0 1.7 0.00 0.00 0.00 88 1013.4
20260505064955 50 332 0.0 1.7 0.00 0.00 0.00 88 1013.4
20260505063955 50 351 0.9 2.6 0.00 0.00 0.00 87 1013.3
20260505062953 51 360 0.0 0.9 0.00 0.00 0.00 86 1013.3
20260505062014 51 357 0.0 2.6 0.00 0.00 0.00 85 1013.2
20260505060955 51 318 0.0 1.7 0.00 0.00 0.00 85 1013.3
20260505055955 52 345 0.0 1.7 0.00 0.00 0.00 84 1013.4
20260505055014 52 350 0.9 1.7 0.00 0.00 0.00 84 1013.4
20260505054035 52 315 0.9 1.7 0.00 0.00 0.00 84 1013.7
20260505053016 52 304 0.9 2.6 0.00 0.00 0.00 84 1013.8
20260505052014 52 339 0.9 2.6 0.00 0.00 0.00 84 1013.8
20260505050953 52 337 0.0 3.5 0.00 0.00 0.00 83 1013.9
20260505040955 53 306 0.9 1.7 0.00 0.00 0.00 80 1013.4
20260505035955 53 336 0.0 2.6 0.00 0.00 0.00 78 1013.2
20260505034954 53 342 0.0 1.7 0.00 0.00 0.00 78 1012.9
20260505033954 53 3 0.9 2.6 0.00 0.00 0.00 78 1012.9
20260505032956 54 343 0.9 3.5 0.00 0.00 0.00 77 1012.7
20260505032014 54 336 0.9 2.6 0.00 0.00 0.00 78 1012.8
20260505030955 54 323 0.9 3.5 0.00 0.00 0.00 77 1012.9
20260505025953 55 350 0.9 2.6 0.00 0.00 0.00 76 1012.8
20260505025017 55 327 0.9 2.6 0.00 0.00 0.00 75 1012.6
20260505023955 56 317 0.0 1.7 0.00 0.00 0.00 74 1012.7
20260505022954 56 17 0.0 2.6 0.00 0.00 0.00 72 1012.5
20260505021955 57 335 0.0 1.7 0.00 0.00 0.00 72 1012.5
20260505020955 57 14 0.0 1.7 0.00 0.00 0.00 72 1012.4
20260505015955 57 308 0.0 2.6 0.00 0.00 0.00 72 1012.4
20260505014955 58 1 0.9 2.6 0.00 0.00 0.00 71 1012.5
20260505013953 59 128 0.0 2.6 0.00 0.00 0.00 70 1012.4
20260505012954 60 209 0.0 1.7 0.00 0.00 0.00 70 1012.5
20260505011954 60 237 0.0 1.7 0.00 0.00 0.00 70 1012.6
20260505010954 61 225 0.0 1.7 0.00 0.00 0.00 69 1012.7
20260505005955 61 232 0.0 1.7 0.00 0.00 0.00 70 1012.7
20260505004955 61 224 0.9 2.6 0.00 0.00 0.00 67 1012.8
20260505003954 62 277 0.9 3.5 0.00 0.00 0.00 68 1012.9
20260505002954 62 243 0.9 2.6 0.00 0.00 0.00 67 1012.9
20260505001953 61 39 0.9 2.6 0.00 0.00 0.00 69 1012.9
20260505000955 60 294 0.9 6.1 0.00 0.00 0.00 69 1012.9
20260505000015 60 272 0.9 4.3 0.00 0.00 0.00 69 1012.8
20260504234954 61 188 0.9 6.1 0.00 0.00 0.00 70 1012.9
20260504233955 63 231 1.7 3.5 0.00 0.00 0.00 65 1012.8
20260504233014 62 268 0.9 5.2 0.00 0.00 0.00 69 1012.8
20260504231955 60 348 0.9 6.1 0.00 0.00 0.00 68 1012.9
20260504230955 61 330 0.9 3.5 0.00 0.00 0.00 66 1012.9
20260504230015 63 14 0.9 4.3 0.00 0.00 0.00 63 1012.9
20260504224955 64 230 0.9 4.3 0.00 0.00 0.00 62 1012.9
20260504224016 69 204 0.9 2.6 0.00 0.00 0.00 57 1013.0
20260504222955 68 200 1.7 5.2 0.00 0.00 0.00 59 1013.0
20260504221955 63 221 0.9 3.5 0.00 0.00 0.00 68 1013.2
20260504220954 62 227 0.9 2.6 0.00 0.00 0.00 68 1013.4
20260504215954 62 221 1.7 5.2 0.00 0.00 0.00 66 1013.4
20260504214954 66 198 1.7 5.2 0.00 0.00 0.00 64 1013.5
20260504213955 64 171 1.7 5.2 0.00 0.00 0.00 70 1013.4
20260504213015 63 177 1.7 5.2 0.00 0.00 0.00 66 1013.6
20260504211954 62 186 1.7 3.5 0.00 0.00 0.00 73 1013.7
20260504210954 60 211 0.9 1.7 0.00 0.00 0.00 72 1013.8
20260504205956 59 162 0.9 3.5 0.00 0.00 0.00 73 1013.7
20260504204955 59 213 0.0 1.7 0.00 0.00 0.00 73 1013.7
20260504203955 59 208 0.0 5.2 0.00 0.00 0.00 73 1013.7
20260504202954 58 188 0.0 5.2 0.00 0.00 0.00 75 1013.8
20260504202015 58 303 0.0 1.7 0.00 0.00 0.00 74 1013.7
20260504200955 58 9 0.0 0.9 0.00 0.00 0.00 75 1013.7
20260504195955 58 324 0.9 2.6 0.00 0.00 0.00 74 1013.7
20260504194954 58 285 0.0 1.7 0.00 0.00 0.00 74 1013.8
20260504193954 59 260 0.9 1.7 0.00 0.00 0.00 72 1013.7
20260504192955 60 292 0.9 2.6 0.00 0.00 0.00 71 1013.7
20260504192009 61 207 0.9 1.7 0.00 0.00 0.00 69 1013.6
20260504190959 60 167 1.7 4.3 0.00 0.00 0.00 71 1013.7
20260504185955 58 141 2.6 7.0 0.00 0.00 0.00 72 1013.8
20260504184954 58 150 1.7 6.1 0.00 0.00 0.00 72 1013.8
20260504183956 58 190 0.9 3.5 0.00 0.00 0.00 71 1013.8
20260504183014 58 156 0.9 2.6 0.00 0.00 0.00 75 1013.8
20260504181954 59 170 0.9 4.3 0.00 0.00 0.00 76 1013.7
20260504180954 58 150 2.6 5.2 0.00 0.00 0.00 74 1013.7
20260504175955 58 136 1.7 6.1 0.00 0.00 0.00 74 1013.5
20260504174955 57 131 2.6 6.1 0.00 0.00 0.00 75 1013.4
20260504173954 57 127 0.9 2.6 0.00 0.00 0.00 77 1013.3
20260504172954 57 170 1.7 5.2 0.00 0.00 0.00 77 1013.3
20260504171955 58 157 0.9 3.5 0.00 0.00 0.00 75 1013.3
20260504170954 59 172 1.7 5.2 0.00 0.00 0.00 74 1013.2